Terminal Aerodrome Forecast
Issued by NWS

Home | Current Version | Previous Version | Text Only | Print | Product List | Glossary On
Versions: 1 2 3 4 5 6 7 8 9 10 11 12 13 14 15 16 17 18 19 20 21 22
000
FTUS43 KDTX 280641 AAA
TAFMBS
TAF AMD
KMBS 280641Z 2807/2906 21005KT 5SM BR SCT005 BKN035
     FM281300 25007KT P6SM BKN020 OVC040
     FM281700 28010KT P6SM BKN040
     FM282000 32010KT P6SM SCT040
     FM290100 36005KT P6SM SKC=

USA.gov is the U.S. government's official web portal to all federal, state and local government web resources and services.